Location: Walton
(43.6794°N, 81.3017°W)
Time: 06:23:19
(UTC+00:00)

Cosmos 1758 Rocket - Visible Passes

Search period start: 11 March 2026 00:00
Search period end: 21 March 2026 00:00
Orbit: 596 x 627 km, 82.5° (Epoch: 10 March)

Date Brightness Start Highest point End Pass type
(mag) Time Alt. Az. Time Alt. Az. Time Alt. Az.
11 Mar 5.7 00:36:49 10° SW 00:40:44 30° WNW 00:44:41 10° NNW visible
11 Mar 3.7 10:42:35 10° N 10:46:59 76° E 10:51:18 10° SSE visible
12 Mar 6.6 00:52:51 10° WSW 00:55:58 18° WNW 00:59:05 10° NNW visible
12 Mar 6.9 09:21:43 10° NE 09:23:48 13° ENE 09:25:53 10° E visible
12 Mar 3.5 10:57:39 10° NNW 11:01:59 60° W 11:06:14 10° S visible
13 Mar 7.1 01:10:00 10° W 01:11:17 11° WNW 01:12:34 10° NW visible
13 Mar 6.1 09:35:42 10° NNE 09:39:06 22° ENE 09:42:27 10° ESE visible
14 Mar 5.2 09:50:14 10° N 09:54:17 36° ENE 09:58:16 10° SE visible
14 Mar 5.5 23:59:02 10° SW 00:03:07 35° WNW 00:07:13 10° N visible
15 Mar 4.0 10:05:02 10° N 10:09:23 64° E 10:13:39 10° SSE visible
16 Mar 6.5 00:14:55 10° WSW 00:18:19 21° WNW 00:21:44 10° NNW visible
16 Mar 6.9 08:44:50 10° NE 08:46:07 11° ENE 08:47:23 10° E visible
16 Mar 3.4 10:20:03 10° NNW 10:24:24 72° W 10:28:41 10° S visible
17 Mar 6.9 00:31:32 10° W 00:33:36 13° WNW 00:35:40 10° NW visible
17 Mar 6.3 08:58:21 10° NNE 09:01:26 18° ENE 09:04:28 10° ESE visible
17 Mar 3.9 10:35:15 10° NNW 10:39:20 40° W 10:43:21 10° SSW visible
18 Mar 5.4 09:12:46 10° NNE 09:16:38 30° ENE 09:20:27 10° SE visible
18 Mar 4.6 10:50:45 10° NW 10:54:11 23° W 10:57:35 10° SW visible
19 Mar 4.3 09:27:29 10° N 09:31:46 53° ENE 09:35:57 10° SSE visible
20 Mar 3.4 09:42:26 10° N 09:46:48 86° W 09:51:05 10° S visible
